This demonstration page uses our WeatherBlox Daily Observations layout. Learn more.

Left ArrowRight Arrow

40.92945, -100.16068

Hourly Observations for April 18, 2015

Temp ( °F °C ) Dew Point ( °F °C ) Humidity (%) Winds ( mph kmh ) Pressure ( in mb ) Visibility ( mi km ) Precip ( " mm )
12:35 am 00:35 Mostly Cloudy 57 14 55 12.7 92 92 ENE 9 15 29.94 1014 7 11 N/A
12:55 am 00:55 Cloudy 57 14.1 55 12.7 91 91 ENE 10 17 29.94 1014 7 11 N/A
1:15 am 01:15 Cloudy with Light Rain 57 14 55 12.5 91 91 E 10 17 29.94 1014 7 11 N/A
1:35 am 01:35 Cloudy with Light Rain 57 13.8 55 12.5 92 92 E 8 13 29.91 1013 7 11 N/A
1:55 am 01:55 Cloudy with Thunderstorms 55 12.5 52 11 91 91 SW 10 17 29.94 1014 3 4 0.13 3.30
2:15 am 02:15 Cloudy with Strong Thunderstorms 54 12.3 51 10.8 91 91 SSE 3 6 29.97 1015 4 6 0.08 2.03
2:35 am 02:35 Cloudy with Strong Thunderstorms 55 13 53 11.7 92 92 S 6 9 29.94 1014 4 6 0.24 6.10
2:55 am 02:55 Cloudy with Nearby Thunderstorms 55 12.8 53 11.6 92 92 S 10 17 29.94 1014 5 8 0.42 10.67
3:15 am 03:15 Cloudy with Nearby Thunderstorms 55 12.8 53 11.7 93 93 WSW 6 9 29.91 1013 4 6 0.08 2.03
3:35 am 03:35 Cloudy with Light Rain 55 12.6 53 11.6 94 94 W 3 6 29.91 1013 7 11 0.12 3.05
3:55 am 03:55 Cloudy with Light Rain 55 12.5 53 11.5 94 94 N N/A 29.91 1013 10 16 0.13 3.30
4:15 am 04:15 Cloudy with Light Rain 54 12.2 53 11.5 96 96 N N/A 29.94 1014 10 16 N/A
4:35 am 04:35 Cloudy with Rain 55 12.5 53 11.8 96 96 N N/A 29.91 1013 7 11 0.02 0.51
4:55 am 04:55 Cloudy with Light Rain 55 12.5 53 11.8 96 96 NW 14 22 29.88 1012 10 16 0.03 0.76
5:15 am 05:15 Mostly Cloudy 54 12 52 11.2 95 95 N 15 24 29.85 1011 10 16 N/A
5:35 am 05:35 Partly Cloudy 54 12.1 52 11.1 94 94 WNW 13 20 29.91 1013 10 16 N/A
5:55 am 05:55 Clear 52 11.3 50 10.2 93 93 NW 9 15 29.91 1013 10 16 N/A
6:15 am 06:15 Clear 51 10.8 49 9.6 92 92 NW 10 17 29.91 1013 10 16 N/A
6:35 am 06:35 Clear 50 10.2 48 9.1 93 93 NNW 8 13 29.91 1013 10 16 N/A
6:55 am 06:55 Clear 51 10.3 48 9.1 92 92 N 6 9 29.91 1013 10 16 N/A
7:15 am 07:15 Sunny 49 9.7 47 8.6 93 93 N 5 7 29.91 1013 10 16 N/A
7:35 am 07:35 Sunny 49 9.5 47 8.5 94 94 N N/A 29.91 1013 10 16 N/A
7:55 am 07:55 Sunny 48 9.1 47 8.1 94 94 N N/A 29.94 1014 10 16 N/A
8:15 am 08:15 Sunny 48 9.1 47 8.4 95 95 N N/A 29.94 1014 10 16 N/A
8:35 am 08:35 Sunny 50 10.2 49 9.4 95 95 N N/A 29.91 1013 10 16 N/A
8:55 am 08:55 Sunny 51 10.5 49 9.7 95 95 N N/A 29.91 1013 10 16 N/A
9:15 am 09:15 Sunny 52 11 50 10.1 94 94 N N/A 29.91 1013 10 16 N/A
9:35 am 09:35 Sunny 53 11.6 51 10.6 94 94 N N/A 29.91 1013 10 16 N/A
9:55 am 09:55 Sunny 54 12.4 52 11.2 92 92 N N/A 29.91 1013 10 16 N/A
10:15 am 10:15 Sunny 56 13.5 54 12.2 92 92 ESE 3 6 29.88 1012 10 16 N/A
10:35 am 10:35 Mostly Cloudy 58 14.2 55 12.6 90 90 ENE 7 11 29.88 1012 10 16 N/A
10:55 am 10:55 Mostly Cloudy 58 14.3 55 12.5 89 89 ENE 3 6 29.88 1012 10 16 N/A
11:15 am 11:15 Partly Cloudy 59 15 55 12.7 86 86 N N/A 29.88 1012 10 16 N/A
11:35 am 11:35 Sunny 61 16.2 56 13.4 84 84 E 3 6 29.85 1011 10 16 N/A
11:55 am 11:55 Sunny 62 16.8 52 11 69 69 N N/A 29.83 1010 10 16 N/A
12:15 pm 12:15 Sunny 64 17.5 52 11.3 67 67 SSW 7 11 29.83 1010 10 16 N/A
12:35 pm 12:35 Sunny 64 17.9 53 11.7 67 67 N N/A 29.83 1010 10 16 N/A
12:55 pm 12:55 Sunny 65 18.2 51 10.4 61 61 SW 6 9 29.83 1010 10 16 N/A
1:15 pm 13:15 Partly Cloudy 65 18.6 52 11.1 62 62 WSW 3 6 29.77 1008 10 16 N/A
1:35 pm 13:35 Partly Cloudy 66 19.1 52 10.9 59 59 SSW 7 11 29.77 1008 10 16 N/A
1:55 pm 13:55 Partly Cloudy 66 18.9 51 10.6 59 59 S 5 7 29.77 1008 10 16 N/A
2:15 pm 14:15 Partly Cloudy 66 19.1 50 9.9 55 55 N N/A 29.77 1008 10 16 N/A
2:35 pm 14:35 Partly Cloudy 67 19.6 50 10.1 54 54 SSW 6 9 29.74 1007 10 16 N/A
2:55 pm 14:55 Sunny 68 20.1 51 10.3 53 53 SE 5 7 29.74 1007 10 16 N/A
3:15 pm 15:15 Sunny 67 19.7 49 9.6 52 52 S 3 6 29.74 1007 10 16 N/A
3:35 pm 15:35 Partly Cloudy 68 19.9 50 10.2 54 54 E 3 6 29.74 1007 10 16 N/A
3:55 pm 15:55 Partly Cloudy 69 20.7 50 10.1 51 51 S 8 13 29.71 1006 10 16 N/A
4:15 pm 16:15 Partly Cloudy 70 20.9 52 11 53 53 ESE 9 15 29.71 1006 10 16 N/A
4:35 pm 16:35 Partly Cloudy 69 20.7 50 10 50 50 ESE 5 7 29.65 1004 10 16 N/A
4:55 pm 16:55 Sunny 68 20.2 52 10.9 55 55 E 6 9 29.68 1005 10 16 N/A
5:15 pm 17:15 Sunny 69 20.5 51 10.7 54 54 NNE 5 7 29.65 1004 10 16 N/A
5:35 pm 17:35 Partly Cloudy 69 20.5 48 9 48 48 N N/A 29.62 1003 10 16 N/A
5:55 pm 17:55 Partly Cloudy 68 20 51 10.5 54 54 E 3 6 29.65 1004 10 16 N/A
6:15 pm 18:15 Sunny 67 19.5 51 10.7 57 57 N N/A 29.65 1004 10 16 N/A
6:35 pm 18:35 Sunny 67 19.2 53 11.7 62 62 N N/A 29.65 1004 10 16 N/A
6:55 pm 18:55 Sunny 66 18.8 53 11.8 64 64 E 5 7 29.65 1004 10 16 N/A
7:15 pm 19:15 Sunny 65 18.1 52 11 63 63 E 15 24 29.68 1005 10 16 N/A
7:35 pm 19:35 Sunny 63 17 49 9.7 62 62 E 10 17 29.71 1006 10 16 N/A
7:55 pm 19:55 Sunny with Nearby Thunderstorms 62 16.5 50 10 66 66 E 10 17 29.68 1005 10 16 N/A
8:15 pm 20:15 Sunny 61 16.2 50 9.8 66 66 E 12 19 29.71 1006 10 16 N/A
8:35 pm 20:35 Mostly Cloudy with Nearby Thunderstorms 57 13.8 49 9.2 74 74 SSE 18 30 29.77 1008 10 16 N/A
8:55 pm 20:55 Cloudy with Thunderstorms 54 12.1 50 9.8 86 86 SSE 16 26 29.80 1009 10 16 0.04 1.02
9:15 pm 21:15 Cloudy with Light Rain 53 11.6 51 10.3 92 92 SE 14 22 29.80 1009 10 16 0.03 0.76
9:35 pm 21:35 Cloudy with Light Rain 53 11.9 51 10.6 92 92 ESE 13 20 29.80 1009 7 11 0.06 1.52
9:55 pm 21:55 Cloudy with Heavy Rain 54 12.1 49 9.6 85 85 E 6 9 29.83 1010 5 8 0.14 3.56
10:15 pm 22:15 Cloudy with Light Rain 54 12 51 10.3 89 89 N N/A 29.83 1010 10 16 0.05 1.27
10:35 pm 22:35 Cloudy 54 12 51 10.5 91 91 NNW 9 15 29.80 1009 10 16 0.05 1.27
10:55 pm 22:55 Cloudy 101 38.1 95 35.2 85 85 NNW 16 26 29.59 1002 10 16 0.05 1.27
11:15 pm 23:15 Cloudy 53 11.4 49 9.6 89 89 NW 12 19 29.83 1010 10 16 N/A
11:35 pm 23:35 Mostly Cloudy 52 11.1 48 9.1 88 88 NW 10 17 29.80 1009 10 16 N/A
11:55 pm 23:55 Clear 52 11.2 49 9.2 88 88 W 8 13 29.80 1009 10 16 N/A

Powered by AerisWeather